Arlington, VA

2:25 PM EST on February 26, 2017 (GMT -0500)
Ronald Reagan Washington National

Weather History for KDCA - March, 2013

Change the Weather History Date:

Sunday, March 3, 2013

  Actual Average Record
Temperature  
Mean Temperature 37 °F 43 °F  
Max Temperature 44 °F 51 °F 79 °F (1923)
Min Temperature 30 °F 34 °F 11 °F (1925)
Degree Days  
Heating Degree Days 28 22  
Month to date heating degree days 80 68  
Since 1 July heating degree days 2894 3176  
Cooling Degree Days 0 0  
Month to date cooling degree days 0 0  
Year to date cooling degree days 0 0  
Moisture  
Dew Point 17 °F    
Average Humidity 48    
Maximum Humidity 63    
Minimum Humidity 33    
Precipitation  
Precipitation 0.00 in 0.09 in 1.75 in (1909)
Month to date precipitation 0.00 0.28  
Year to date precipitation 4.20 5.71  
Snow  
Snow 0.00 in 0.10 in 7.10 in (1960)
Month to date snowfall 0.0 0.3  
Since 1 July snowfall 1.5 14.4  
Snow Depth 0.00 in    
Sea Level Pressure  
Sea Level Pressure 29.87 in    
Wind  
Wind Speed 13 mph (NW)    
Max Wind Speed 25 mph    
Max Gust Speed 31 mph    
Visibility 10 miles    
Events      
T = Trace of Precipitation, MM = Missing Value Source: NWS Daily Summary

Daily Weather History Graph

Daily Weather History Graph

Search for Another Location

Airport or City:

Trip Planner

Search our weather history database for the weather conditions in past years. The results will help you decide how hot, cold, wet, or windy it might be!

Date:

Astronomy

Mar. 03, 2013 Rise Set
Actual Time 6:37 AM EST 6:03 PM EST
Civil Twilight 6:10 AM EST 6:29 PM EST
Nautical Twilight 5:39 AM EST 7:00 PM EST
Astronomical Twilight 5:08 AM EST 7:31 PM EST
Moon No Moon Rise 9:54 AM EST (3/3)
Length of Visible Light 12h 19m
Length of Day
11h 26m
Waning Gibbous, 64% of the Moon is Illuminated
Mar 3
Waning Gibbous
Mar 4
Last Quarter
Mar 11
New
Mar 19
First Quarter
Mar 27
Full

Hourly Weather History & Observations

Time (EST) Temp. Windchill Dew Point Humidity Pressure Visibility Wind Dir Wind Speed Gust Speed Precip Events Conditions
1:52 AM 30.9 °F 21.2 °F 19.0 °F 61% 29.87 in 10.0 mi NW 12.7 mph - N/A   Partly Cloudy
2:52 AM 30.9 °F 22.2 °F 19.0 °F 61% 29.86 in 10.0 mi NW 10.4 mph 18.4 mph N/A   Partly Cloudy
3:52 AM 32.0 °F 24.8 °F 19.0 °F 59% 29.86 in 10.0 mi NW 8.1 mph - N/A   Mostly Cloudy
4:52 AM 30.9 °F 22.2 °F 18.0 °F 59% 29.87 in 10.0 mi NNW 10.4 mph - N/A   Scattered Clouds
5:52 AM 30.9 °F 23.5 °F 18.0 °F 59% 29.87 in 10.0 mi NNW 8.1 mph - N/A   Scattered Clouds
6:52 AM 30.0 °F 21.7 °F 19.0 °F 64% 29.87 in 10.0 mi NNW 9.2 mph - N/A   Scattered Clouds
7:52 AM 34.0 °F 27.2 °F 19.9 °F 56% 29.89 in 10.0 mi NNW 8.1 mph - N/A   Scattered Clouds
8:52 AM 35.1 °F 24.1 °F 19.0 °F 52% 29.88 in 10.0 mi NW 19.6 mph 25.3 mph N/A   Mostly Cloudy
9:52 AM 36.0 °F 25.0 °F 17.1 °F 46% 29.88 in 10.0 mi NNW 20.7 mph 27.6 mph N/A   Mostly Cloudy
10:52 AM 37.9 °F 28.9 °F 17.1 °F 43% 29.88 in 10.0 mi NNW 16.1 mph 28.8 mph N/A   Mostly Cloudy
11:52 AM 39.0 °F 31.4 °F 17.1 °F 41% 29.86 in 10.0 mi NNW 12.7 mph 23.0 mph N/A   Mostly Cloudy
12:52 PM 39.0 °F 31.4 °F 17.1 °F 41% 29.85 in 10.0 mi NW 12.7 mph 25.3 mph N/A   Mostly Cloudy
1:52 PM 41.0 °F 32.8 °F 16.0 °F 36% 29.82 in 10.0 mi WNW 16.1 mph 23.0 mph N/A   Mostly Cloudy
2:52 PM 42.1 °F 34.9 °F 16.0 °F 35% 29.81 in 10.0 mi West 13.8 mph 24.2 mph N/A   Overcast
3:52 PM 42.1 °F 34.5 °F 16.0 °F 35% 29.81 in 10.0 mi NNW 15.0 mph 20.7 mph N/A   Overcast
4:52 PM 41.0 °F 32.5 °F 16.0 °F 36% 29.82 in 10.0 mi WNW 17.3 mph - N/A   Overcast
5:52 PM 39.9 °F 32.5 °F 16.0 °F 38% 29.84 in 10.0 mi NNW 12.7 mph - N/A   Mostly Cloudy
6:52 PM 37.9 °F 29.2 °F 16.0 °F 41% 29.87 in 10.0 mi NW 15.0 mph 25.3 mph N/A   Overcast
7:52 PM 36.0 °F 25.3 °F 16.0 °F 44% 29.90 in 10.0 mi NW 19.6 mph 31.1 mph N/A   Scattered Clouds
8:52 PM 35.1 °F 25.9 °F 15.1 °F 44% 29.92 in 10.0 mi NW 13.8 mph 27.6 mph N/A   Partly Cloudy
9:52 PM 34.0 °F 26.0 °F 14.0 °F 44% 29.93 in 10.0 mi NW 10.4 mph 20.7 mph N/A   Partly Cloudy
10:52 PM 33.1 °F 24.4 °F 14.0 °F 46% 29.93 in 10.0 mi NW 11.5 mph 19.6 mph N/A   Partly Cloudy
11:52 PM 32.0 °F 21.6 °F 14.0 °F 48% 29.94 in 10.0 mi NW 15.0 mph 23.0 mph N/A   Partly Cloudy